Powrót do katalogu

APSTAR 9

AktywnyŁącznośćGEO
NORAD 40982·PAYLOAD·🇨🇳 China

Wystrzelony Oct 16, 2015 z Xichang Satellite Launch Center

Loading…

TLE

ŚwieżeSource: Space-Track

Epoka: Sep 14, 2026, 12:46 UTC

1 40982U 15059A   26257.53197539 -.00000274  00000-0  00000-0 0  9991
2 40982   0.0352  33.5885 0002483 144.6878 148.7586  1.00270691 40001

Śledź APSTAR 9 w czasie rzeczywistym z AllMySat

Download on the App Store